When you browse on this site, cookies collect data to enhance your experience and personalize the content and advertising you see.
Visit our Privacy Policy to learn more. By continuing to use the site, you agree to this use of cookies and data.
  • In Deutschland
  • Länderverzeichnis
  • Für 7 Tage
  • Wassertemperatur
  • Wetterkarte
  • Widgets
  • user-avatar
    Anmelden

    Stündliche Wetter Augsburg

    Heute, 15 Oktober, Dienstag

    Zeit Temperatur Niederschläge Wind Luftdruck Luftfeuchtigkeit
    00:00 +13°C° 0 mm 1 m/S 716 mmHg 89%
    01:00 +13°C° 0 mm 2 m/S 716 mmHg 89%
    02:00 +12°C° 0 mm 1 m/S 716 mmHg 89%
    03:00 +12°C° 0 mm 1 m/S 715 mmHg 88%
    04:00 +12°C° 0 mm 1 m/S 715 mmHg 88%
    05:00 +11°C° 0 mm 1 m/S 715 mmHg 87%
    06:00 +11°C° 0 mm 1 m/S 714 mmHg 86%
    07:00 +11°C° 0 mm 1 m/S 714 mmHg 85%
    08:00 +13°C° 0 mm 1 m/S 714 mmHg 80%
    09:00 +15°C° 0 mm 1 m/S 713 mmHg 74%
    10:00 +16°C° 0 mm 1 m/S 713 mmHg 69%
    11:00 +18°C° 0 mm 2 m/S 713 mmHg 67%
    12:00 +19°C° 0 mm 2 m/S 712 mmHg 65%
    13:00 +20°C° 0 mm 2 m/S 712 mmHg 63%
    14:00 +19°C° 0 mm 2 m/S 712 mmHg 67%
    15:00 +20°C° 0 mm 1 m/S 712 mmHg 71%
    16:00 +20°C° 0 mm 1 m/S 712 mmHg 75%
    17:00 +17°C° 0.1 mm 4 m/S 712 mmHg 77%
    18:00 +14°C° 0.1 mm 7 m/S 713 mmHg 80%
    19:00 +11°C° 0.1 mm 10 m/S 714 mmHg 82%
    20:00 +10°C° 0.7 mm 9 m/S 715 mmHg 85%
    21:00 +8°C° 0.7 mm 9 m/S 716 mmHg 87%
    22:00 +9°C° 0.7 mm 8 m/S 717 mmHg 89%
    23:00 +7°C° 0.9 mm 8 m/S 717 mmHg 89%

    Morgen, 16 Oktober, Mittwoch

    Zeit Temperatur Niederschläge Wind Luftdruck Luftfeuchtigkeit
    00:00 +8°C° 0.9 mm 7 m/S 718 mmHg 90%
    01:00 +8°C° 0.9 mm 6 m/S 718 mmHg 90%
    02:00 +8°C° 0 mm 6 m/S 719 mmHg 89%
    03:00 +7°C° 0 mm 5 m/S 719 mmHg 88%
    04:00 +7°C° 0 mm 4 m/S 719 mmHg 88%
    05:00 +7°C° 0 mm 4 m/S 719 mmHg 88%
    06:00 +6°C° 0 mm 4 m/S 719 mmHg 89%
    07:00 +5°C° 0 mm 3 m/S 719 mmHg 89%
    08:00 +8°C° 0 mm 3 m/S 719 mmHg 83%
    09:00 +10°C° 0 mm 4 m/S 719 mmHg 77%
    10:00 +12°C° 0 mm 4 m/S 719 mmHg 71%
    11:00 +13°C° 0 mm 4 m/S 719 mmHg 66%
    12:00 +14°C° 0 mm 3 m/S 719 mmHg 62%
    13:00 +16°C° 0 mm 3 m/S 718 mmHg 57%
    14:00 +16°C° 0 mm 2 m/S 718 mmHg 60%
    15:00 +16°C° 0 mm 2 m/S 718 mmHg 62%
    16:00 +16°C° 0 mm 1 m/S 718 mmHg 65%
    17:00 +14°C° 0 mm 1 m/S 718 mmHg 67%
    18:00 +12°C° 0 mm 1 m/S 718 mmHg 70%
    19:00 +11°C° 0 mm 1 m/S 718 mmHg 73%
    20:00 +10°C° 0 mm 1 m/S 718 mmHg 74%
    21:00 +10°C° 0 mm 1 m/S 718 mmHg 75%
    22:00 +9°C° 0 mm 1 m/S 719 mmHg 75%
    23:00 +9°C° 0 mm 1 m/S 719 mmHg 75%

    übermorgen, 17 Oktober, Donnerstag

    Zeit Temperatur Niederschläge Wind Luftdruck Luftfeuchtigkeit
    00:00 +9°C° 0 mm 1 m/S 719 mmHg 75%
    01:00 +9°C° 0 mm 1 m/S 719 mmHg 75%
    02:00 +9°C° 0 mm 1 m/S 719 mmHg 74%
    03:00 +9°C° 0 mm 1 m/S 719 mmHg 74%
    04:00 +9°C° 0 mm 1 m/S 719 mmHg 74%
    05:00 +8°C° 0 mm 2 m/S 719 mmHg 75%
    06:00 +8°C° 0 mm 2 m/S 719 mmHg 76%
    07:00 +8°C° 0 mm 2 m/S 719 mmHg 77%
    08:00 +11°C° 0 mm 1 m/S 719 mmHg 72%
    09:00 +13°C° 0 mm 1 m/S 720 mmHg 68%
    10:00 +15°C° 0 mm 1 m/S 720 mmHg 64%
    11:00 +16°C° 0 mm 1 m/S 720 mmHg 60%
    12:00 +18°C° 0 mm 1 m/S 720 mmHg 57%
    13:00 +20°C° 0 mm 1 m/S 720 mmHg 53%
    14:00 +19°C° 0 mm 1 m/S 720 mmHg 59%
    15:00 +18°C° 0 mm 1 m/S 720 mmHg 65%
    16:00 +18°C° 0 mm 1 m/S 719 mmHg 70%
    17:00 +15°C° 0 mm 1 m/S 720 mmHg 75%
    18:00 +14°C° 0 mm 1 m/S 720 mmHg 80%
    19:00 +11°C° 0 mm 0 m/S 720 mmHg 84%
    20:00 +11°C° 0 mm 0 m/S 720 mmHg 85%
    21:00 +12°C° 0 mm 1 m/S 720 mmHg 85%
    22:00 +11°C° 0 mm 1 m/S 720 mmHg 85%
    23:00 +11°C° 0 mm 1 m/S 720 mmHg 86%

    18 Oktober, Freitag

    Zeit Temperatur Niederschläge Wind Luftdruck Luftfeuchtigkeit
    00:00 +11°C° 0 mm 1 m/S 720 mmHg 87%
    01:00 +10°C° 0 mm 1 m/S 720 mmHg 88%
    02:00 +10°C° 0 mm 1 m/S 720 mmHg 86%
    03:00 +11°C° 0 mm 1 m/S 720 mmHg 85%
    04:00 +10°C° 0 mm 0 m/S 720 mmHg 84%
    05:00 +10°C° 0 mm 0 m/S 719 mmHg 83%
    06:00 +10°C° 0 mm 0 m/S 719 mmHg 83%
    07:00 +10°C° 0 mm 0 m/S 719 mmHg 83%
    08:00 +12°C° 0 mm 1 m/S 720 mmHg 79%
    09:00 +13°C° 0 mm 1 m/S 720 mmHg 76%
    10:00 +15°C° 0 mm 1 m/S 720 mmHg 72%
    11:00 +16°C° 0 mm 1 m/S 720 mmHg 69%
    12:00 +18°C° 0 mm 1 m/S 720 mmHg 66%
    13:00 +19°C° 0 mm 1 m/S 719 mmHg 63%
    14:00 +19°C° 0 mm 1 m/S 719 mmHg 66%
    15:00 +19°C° 0 mm 1 m/S 719 mmHg 69%
    16:00 +16°C° 0 mm 0 m/S 719 mmHg 73%
    17:00 +15°C° 0.1 mm 0 m/S 719 mmHg 77%
    18:00 +14°C° 0.1 mm 1 m/S 719 mmHg 82%
    19:00 +12°C° 0.1 mm 1 m/S 719 mmHg 86%
    20:00 +12°C° 0 mm 1 m/S 719 mmHg 87%
    21:00 +12°C° 0 mm 1 m/S 719 mmHg 88%
    22:00 +12°C° 0 mm 1 m/S 719 mmHg 89%
    23:00 +12°C° 0 mm 1 m/S 719 mmHg 89%

    19 Oktober, Samstag

    Zeit Temperatur Niederschläge Wind Luftdruck Luftfeuchtigkeit
    00:00 +12°C° 0 mm 1 m/S 719 mmHg 89%
    01:00 +12°C° 0 mm 2 m/S 719 mmHg 89%
    02:00 +12°C° 0.1 mm 1 m/S 719 mmHg 90%
    03:00 +12°C° 0.1 mm 1 m/S 719 mmHg 92%
    04:00 +12°C° 0.1 mm 1 m/S 719 mmHg 94%
    05:00 +11°C° 0 mm 1 m/S 719 mmHg 94%
    06:00 +10°C° 0 mm 0 m/S 718 mmHg 94%
    07:00 +10°C° 0 mm 0 m/S 718 mmHg 94%
    08:00 +12°C° 0 mm 1 m/S 718 mmHg 89%
    09:00 +14°C° 0 mm 1 m/S 718 mmHg 83%
    10:00 +15°C° 0 mm 1 m/S 718 mmHg 78%
    11:00 +16°C° 0 mm 2 m/S 717 mmHg 75%
    12:00 +17°C° 0 mm 2 m/S 717 mmHg 71%
    13:00 +18°C° 0 mm 3 m/S 716 mmHg 68%
    14:00 +17°C° 0 mm 3 m/S 716 mmHg 71%
    15:00 +17°C° 0 mm 3 m/S 715 mmHg 74%
    16:00 +17°C° 0 mm 3 m/S 715 mmHg 77%
    17:00 +14°C° 0 mm 3 m/S 714 mmHg 81%
    18:00 +14°C° 0 mm 2 m/S 714 mmHg 86%
    19:00 +12°C° 0 mm 2 m/S 714 mmHg 91%
    20:00 +12°C° 0 mm 2 m/S 713 mmHg 92%
    21:00 +11°C° 0 mm 1 m/S 713 mmHg 93%
    22:00 +10°C° 0 mm 1 m/S 713 mmHg 93%
    23:00 +10°C° 0 mm 1 m/S 712 mmHg 93%

    20 Oktober, Sonntag

    Zeit Temperatur Niederschläge Wind Luftdruck Luftfeuchtigkeit
    00:00 +10°C° 0 mm 1 m/S 712 mmHg 92%
    01:00 +10°C° 0 mm 1 m/S 712 mmHg 91%
    02:00 +9°C° 0 mm 2 m/S 712 mmHg 91%
    03:00 +9°C° 0 mm 2 m/S 712 mmHg 91%
    04:00 +9°C° 0 mm 3 m/S 712 mmHg 91%
    05:00 +9°C° 0 mm 3 m/S 713 mmHg 91%
    06:00 +10°C° 0 mm 3 m/S 713 mmHg 91%
    07:00 +10°C° 0 mm 3 m/S 714 mmHg 90%
    08:00 +10°C° 0.9 mm 4 m/S 714 mmHg 91%
    09:00 +10°C° 0.9 mm 4 m/S 714 mmHg 91%
    10:00 +9°C° 0.9 mm 5 m/S 714 mmHg 91%
    11:00 +9°C° 1.1 mm 5 m/S 715 mmHg 91%
    12:00 +9°C° 1.1 mm 5 m/S 715 mmHg 90%
    13:00 +9°C° 1.1 mm 5 m/S 716 mmHg 89%
    14:00 +9°C° 0.1 mm 5 m/S 716 mmHg 88%
    15:00 +10°C° 0.1 mm 4 m/S 716 mmHg 88%
    16:00 +10°C° 0.1 mm 4 m/S 716 mmHg 87%
    17:00 +8°C° 0 mm 4 m/S 717 mmHg 88%
    18:00 +9°C° 0 mm 3 m/S 717 mmHg 89%
    19:00 +8°C° 0 mm 2 m/S 717 mmHg 91%
    20:00 +8°C° 0 mm 2 m/S 717 mmHg 90%
    21:00 +8°C° 0 mm 2 m/S 718 mmHg 89%
    22:00 +7°C° 0 mm 2 m/S 718 mmHg 88%
    23:00 +8°C° 0 mm 1 m/S 718 mmHg 87%
    Mehr zeigen